Location: Kaseke
(18.0171°S, 31.0526°E)
Time: 11:07:15
(UTC+00:00)

SMAP - Pass Details

Date: 14 July 2020
Orbit: 681 x 683 km, 98.1° (Epoch: 08 August)

Event Time Altitude Azimuth Distance (km) Brightness Sun altitude
Rises 03:43:04 0° 9° (N) 3,022 6.8 -10.7°
Reaches altitude 10° 03:45:17 10° 8° (N) 2,114 6.0 -10.2°
Maximum altitude 03:49:55 77° 282° (WNW) 704 3.0 -9.2°
Drops below altitude 10° 03:54:35 10° 195° (SSW) 2,137 5.3 -8.1°
Sets 03:56:51 0° 194° (SSW) 3,058 6.1 -7.6°
